Location: Allentsteig
(48.6833°N, 15.3167°E)
Time: 16:52:00
(UTC+00:00)

Resurs 1-3 - Pass Details

Date: 18 September 2020
Orbit: 631 x 632 km, 97.9° (Epoch: 29 October)

Event Time Altitude Azimuth Distance (km) Brightness Sun altitude
Exits shadow 18:23:47 21° 115° (ESE) 1,409 4.8 -13.7°
Maximum altitude 18:25:55 33° 67° (ENE) 1,060 4.4 -14.0°
Drops below altitude 10° 18:29:53 10° 3° (N) 2,026 6.4 -14.6°
Sets 18:32:14 0° 354° (N) 2,939 7.4 -15.0°
